EHI
0 0 0 0 0 0 0 0 0 0 2 4 5 8 14 19 23 25 27 29 29 32 35 35 33 33 32 30 29 27 24 21 20 24 25 24 21 19 19 18 16 15 14 11
0 0 0 0 0 0 0 0 0 1 3 6 8 11 15 19 22 26 29 31 32 34 38 41 40 37 35 33 30 28 26 25 25 25 25 26 25 23 21 19 17 16 14 11
0 0 0 0 0 0 0 0 1 2 5 8 10 11 14 17 19 24 28 30 34 37 41 44 45 42 39 37 33 28 26 25 24 23 23 24 25 26 23 20 17 16 14 12
0 0 0 0 0 0 0 1 2 6 8 8 7 7 10 13 15 18 22 26 30 35 40 43 43 42 40 38 33 27 22 20 21 21 20 20 23 25 24 21 17 14 13 12
0 0 0 0 0 0 0 1 4 7 8 7 4 4 7 11 13 17 22 25 27 32 37 41 41 42 41 38 31 23 19 19 19 20 18 17 19 21 21 20 17 13 12 11
0 0 0 0 0 0 0 1 4 7 7 5 4 5 7 10 14 19 25 28 29 31 34 37 40 41 41 38 30 22 19 20 20 19 19 18 17 16 17 17 15 12 11 10
0 0 0 0 0 1 2 4 8 10 8 7 6 7 9 12 16 20 25 29 31 30 31 32 35 37 37 34 31 25 24 24 22 21 20 18 16 15 16 16 14 12 10 9
1 0 0 1 1 3 6 10 13 15 13 10 8 7 9 12 15 19 23 26 27 27 28 29 30 32 33 31 31 29 29 28 25 23 20 17 15 15 16 16 14 11 9 8
3 1 1 2 3 6 10 14 17 18 15 11 8 7 8 10 13 15 18 22 23 25 27 28 27 29 31 31 30 29 29 29 26 23 20 17 15 15 16 15 13 10 8 7
5 3 2 4 7 9 13 17 20 18 15 11 9 8 7 8 10 12 15 18 21 24 27 27 27 28 30 31 29 26 26 26 24 22 20 17 15 14 14 14 12 10 9 8
6 4 5 8 10 12 15 18 20 19 15 13 11 9 8 8 9 12 14 17 19 23 26 27 29 30 30 29 27 24 23 23 21 20 19 16 13 12 12 12 10 8 7 7
5 5 6 9 10 12 15 17 18 17 15 13 12 11 10 10 11 12 15 17 19 21 22 26 30 31 30 28 25 22 21 20 20 19 19 16 13 11 9 7 5 3 3 2
5 6 7 7 8 10 12 14 16 14 12 11 11 12 12 12 12 13 16 18 19 18 19 22 27 29 28 26 24 22 21 20 19 18 15 13 12 11 9 6 3 1 0 0
6 7 7 6 5 7 8 11 13 13 10 9 9 10 12 14 14 14 16 18 18 17 17 19 22 23 23 23 22 22 21 20 18 14 11 9 9 10 10 7 5 4 2 1
5 5 5 4 4 5 7 9 12 13 11 10 10 10 11 13 15 15 16 17 17 16 16 17 19 20 20 20 20 20 19 18 14 11 7 6 6 7 6 6 6 6 4 2
5 4 4 4 5 6 7 9 11 11 12 12 12 11 10 12 15 16 16 16 16 15 15 16 17 18 19 18 17 17 16 13 9 7 5 5 5 4 4 4 4 4 3 2
5 5 4 4 5 6 7 8 9 9 10 12 13 11 9 11 13 15 15 15 14 12 12 13 13 14 15 15 15 14 12 9 6 5 4 4 4 3 3 3 3 2 1 1
4 4 4 4 4 4 5 6 6 6 7 8 10 9 9 10 11 12 13 11 9 8 8 8 8 9 10 11 11 11 9 7 5 4 4 4 3 3 3 3 2 1 0 0
2 3 3 3 3 3 3 4 6 6 5 6 6 7 8 9 9 8 8 6 4 4 5 6 5 5 6 6 6 7 7 4 3 3 3 3 2 2 2 1 1 0 0 0
1 2 3 3 3 2 2 4 6 6 5 4 4 4 5 6 6 5 3 2 2 3 4 4 3 3 2 2 2 3 3 2 1 1 1 1 1 1 1 0 0 0 0 0
1 2 2 2 3 3 3 3 4 5 4 3 3 3 3 3 3 3 2 2 2 2 2 2 1 1 0 0 0 1 1 0 0 0 0 0 0 0 0 0 0 0 0 0
1 2 2 2 2 2 2 2 2 2 3 3 3 3 2 1 2 2 2 1 1 1 1 0 0 0 0 0 0 0 0 0 0 0 0 0 0 0 0 0 0 0 0 0
2 2 1 1 1 1 1 2 2 3 3 4 4 3 2 1 1 1 1 0 0 0 0 0 0 0 0 0 0 0 0 0 0 0 0 0 0 0 0 0 0 0 0 0
2 2 1 0 0 1 2 3 4 5 5 5 5 4 2 0 0 0 0 0 0 0 0 0 0 0 0 0 0 0 0 0 0 0 0 0 0 0 0 0 0 0 0 0
3 2 1 0 1 2 2 3 4 4 5 5 3 2 1 0 0 0 0 0 0 0 0 0 0 0 0 0 0 0 0 0 0 0 0 0 0 0 0 0 0 0 0 0
3 2 1 0 1 2 2 1 2 3 3 2 1 0 0 0 0 0 0 0 0 0 0 1 1 0 0 0 0 0 0 0 0 0 0 0 0 0 0 0 0 0 0 0
3 2 1 0 1 2 2 1 1 1 1 0 0 0 0 0 0 0 0 0 0 0 1 2 2 1 0 0 0 0 0 0 0 0 0 0 0 0 0 0 0 0 0 0
Wind_Speed
8 6 9 10 11 12 14 13 11 9 8 4 3 4 4 5 6 6 7 7 7 8 8 9 9 10 9 9 9 9 9 8 8 7 6 5 5 4 4 3 3 4 3 3
10 9 9 10 12 13 13 13 12 11 7 2 3 3 3 4 5 6 6 6 7 8 9 9 10 10 10 10 9 9 9 8 7 7 6 6 5 5 4 3 3 3 3 2
10 10 11 13 11 12 11 11 11 10 6 4 3 3 3 4 5 5 5 6 7 7 8 9 9 10 10 9 9 8 8 7 7 7 7 6 5 5 4 4 4 3 3 3
9 10 15 6 6 9 10 9 8 5 3 4 3 3 2 3 4 4 5 5 6 6 7 8 9 9 9 9 9 8 8 8 7 7 7 6 5 5 4 4 4 3 3 3
9 12 10 6 6 8 9 8 6 6 5 4 3 4 2 1 2 3 4 4 5 6 7 8 8 9 10 9 9 8 8 8 8 8 7 7 6 5 5 4 4 4 3 3
9 12 11 5 4 3 8 9 5 5 6 6 6 6 3 1 1 2 3 3 5 6 7 8 8 9 10 9 9 8 8 8 7 7 7 7 6 5 5 4 4 4 4 3
10 10 5 2 2 6 9 3 2 3 4 5 5 2 1 1 2 2 3 4 5 6 6 7 8 9 9 9 8 8 7 7 7 7 7 7 6 5 5 5 4 4 4 3
8 10 5 2 3 4 2 2 1 2 2 2 2 1 1 1 2 3 4 4 5 5 6 6 8 9 8 8 8 8 8 7 7 7 6 6 6 5 5 5 5 5 4 4
2 1 4 2 1 2 0 1 1 0 0 1 1 1 1 1 1 2 3 4 5 5 5 6 7 8 8 7 7 8 8 7 7 7 6 6 6 6 6 5 5 4 4 4
2 2 0 0 1 1 1 1 0 0 1 1 1 1 1 0 1 1 3 4 4 5 5 6 7 7 6 7 7 7 7 7 6 6 6 6 5 5 4 4 4 4 4 4
4 2 3 2 1 2 2 1 1 1 1 1 1 1 1 0 0 1 2 3 4 4 5 5 7 6 6 7 7 7 7 6 6 6 5 5 4 2 3 2 1 2 2 3
1 1 1 1 1 2 2 2 2 2 2 1 1 1 1 1 0 1 1 2 3 4 4 5 5 6 6 7 7 7 7 6 5 5 5 4 4 3 4 2 4 2 2 2
2 1 1 1 1 2 2 2 2 2 1 1 1 1 0 0 0 1 2 3 3 3 3 4 5 5 6 6 7 7 6 5 4 4 4 4 4 4 4 3 3 2 1 0
1 1 1 1 1 2 2 1 2 2 1 1 1 0 0 0 0 1 2 3 3 3 3 4 4 5 5 6 6 6 6 5 4 4 4 4 4 4 4 4 4 3 4 4
1 2 2 1 1 1 1 1 2 1 1 1 1 0 0 0 1 1 1 2 3 3 3 4 4 4 5 5 6 6 5 4 4 4 4 4 4 4 4 4 3 3 4 5
1 2 3 3 2 1 1 1 2 2 2 2 1 0 0 1 1 1 1 2 3 3 2 3 3 4 4 5 5 5 4 4 4 4 4 4 4 4 4 4 4 3 3 3
1 1 1 2 2 1 1 1 2 2 2 2 1 1 1 1 2 2 2 2 2 2 2 2 2 3 4 5 4 3 3 5 6 5 5 4 4 4 4 4 4 3 3 2
1 0 0 1 1 0 0 1 2 2 2 2 1 1 1 1 1 1 2 2 3 2 1 1 2 2 3 4 3 3 3 4 5 5 4 4 4 4 4 4 4 4 3 4
2 1 1 1 1 0 0 1 1 2 1 1 1 1 1 1 1 2 2 2 2 2 1 2 2 2 3 3 3 3 3 4 4 4 4 4 5 5 5 4 4 4 4 3
2 2 2 2 2 1 1 1 1 1 1 1 1 1 1 1 1 2 2 1 1 1 1 1 2 3 3 3 3 3 3 4 4 4 4 4 4 4 4 4 4 4 4 3
2 2 2 2 2 2 2 2 2 1 1 1 1 1 1 1 1 1 0 1 2 2 1 2 1 1 2 2 4 3 3 3 4 4 4 4 4 4 3 4 4 3 3 3
2 2 2 2 2 2 2 2 1 1 1 1 2 2 1 1 1 0 1 1 1 2 1 1 1 1 1 2 3 3 3 3 4 3 3 3 3 3 3 3 3 3 3 3
1 1 2 2 2 2 2 1 1 1 1 1 1 1 2 2 2 2 1 1 1 1 2 1 2 1 2 4 3 3 3 3 3 3 3 3 4 4 4 4 4 4 4 4
1 2 2 2 1 1 2 2 2 1 1 1 1 1 1 1 1 1 2 1 1 1 2 1 1 1 4 3 2 2 3 3 3 3 3 3 4 4 4 4 4 3 3 4
1 1 1 1 1 1 1 1 1 1 0 1 1 1 1 1 2 2 2 2 0 1 1 1 2 3 3 2 2 3 3 3 2 3 3 3 3 3 3 3 3 3 4 4
1 0 1 1 1 1 1 1 1 1 1 1 1 1 1 1 1 1 1 1 1 2 3 1 1 3 3 3 3 3 3 3 4 4 4 3 3 3 3 3 4 3 3 3
1 1 1 1 1 1 1 1 1 1 2 2 2 2 2 2 2 2 2 2 2 2 2 2 1 2 3 3 3 3 3 3 3 3 3 3 3 3 3 4 3 3 3 3
Wind_Direction
246 241 220 217 218 220 229 241 249 243 242 213 196 198 184 172 169 166 167 171 171 172 171 172 172 173 173 171 168 166 169 171 171 167 159 156 153 152 151 147 143 141 136 137
226 226 224 228 226 223 227 236 245 249 245 206 204 191 174 173 175 175 175 175 174 175 172 172 174 174 170 171 168 168 170 167 159 157 154 152 152 152 150 147 137 134 140 141
221 212 220 224 226 226 225 234 244 243 239 214 204 201 199 194 192 192 185 178 175 176 175 174 172 168 166 161 158 159 161 159 159 157 154 154 156 152 154 152 143 137 132 137
220 212 227 216 223 234 233 231 238 245 227 221 209 214 210 196 194 200 194 185 178 174 171 171 165 160 157 156 158 161 161 160 162 161 159 158 162 161 160 151 144 139 138 142
222 219 222 200 208 221 226 223 221 221 220 211 198 210 186 155 200 204 197 182 172 173 165 160 159 156 155 159 163 166 167 167 167 165 162 165 166 166 162 152 148 154 152 155
225 229 225 192 162 230 234 218 199 210 212 212 218 232 196 151 192 184 176 163 159 158 155 153 155 156 158 162 165 170 171 169 167 166 165 167 164 166 164 167 166 168 155 167
227 231 218 85 183 201 222 191 165 208 210 217 228 278 67 120 149 158 154 154 156 154 155 154 156 160 165 165 167 167 165 165 168 169 169 168 168 170 172 179 172 174 167 175
226 232 206 83 201 213 28 45 146 182 191 189 162 152 150 115 140 147 150 154 156 156 156 155 160 166 170 171 166 162 162 163 165 169 172 165 170 175 179 181 180 182 183 194
274 330 46 17 21 58 129 167 148 166 110 134 183 172 149 168 174 164 163 162 163 163 160 162 169 174 176 169 162 160 159 161 163 167 170 169 176 179 183 189 198 193 194 200
223 169 133 13 64 110 124 140 240 225 193 186 174 156 131 127 184 183 171 166 166 168 169 172 176 180 174 160 162 162 162 164 167 171 173 172 184 190 194 194 200 203 206 207
215 185 159 142 74 73 76 83 69 50 73 112 118 111 103 107 122 193 174 170 172 176 174 176 177 176 166 163 167 168 169 172 175 176 171 172 180 191 208 185 208 235 223 211
246 162 213 117 57 58 72 70 55 61 62 65 73 73 60 54 58 195 191 188 186 183 180 171 167 169 166 168 174 174 175 179 181 178 170 176 174 163 67 63 78 57 5 321
302 22 47 95 65 56 57 44 30 35 44 19 19 35 65 76 215 210 204 203 195 188 176 168 163 163 165 168 175 181 184 182 184 181 173 177 180 176 163 134 118 125 158 211
218 161 145 123 72 54 46 50 52 50 34 4 344 341 133 179 206 217 217 207 190 170 165 165 165 164 164 166 170 180 189 179 186 184 185 185 185 188 188 182 177 177 177 180
180 189 182 152 138 113 82 67 66 61 50 28 17 92 190 209 213 213 203 188 176 172 168 166 170 170 166 171 174 183 191 188 188 188 190 194 193 195 198 195 192 186 175 166
142 171 180 173 158 118 96 85 69 38 21 24 18 31 135 174 175 170 172 172 177 180 173 173 178 171 169 180 184 188 187 176 194 200 195 192 195 198 200 200 199 199 203 190
161 161 164 164 156 143 85 59 58 40 31 26 22 46 125 148 150 147 141 137 136 131 153 177 175 169 172 181 195 194 188 178 188 205 203 199 201 201 204 213 215 212 213 179
77 103 199 180 143 144 72 59 61 52 32 31 39 80 101 133 148 124 114 102 107 110 126 151 149 158 181 184 196 204 198 195 198 207 205 205 205 205 210 218 221 222 214 170
57 54 62 76 76 88 84 56 62 68 51 36 46 45 45 65 90 101 96 101 119 134 128 106 116 180 191 183 203 207 211 210 207 207 209 199 209 217 219 219 221 222 221 212
50 43 39 45 48 58 63 50 42 57 52 52 56 44 18 48 90 107 109 101 51 47 90 106 161 188 191 175 196 221 218 216 214 214 214 214 217 217 218 219 222 226 227 223
42 40 39 44 40 37 43 43 39 47 46 38 37 16 333 359 30 51 120 91 57 33 35 135 201 200 187 178 205 223 218 221 219 219 217 218 221 219 216 220 224 231 233 233
25 26 42 38 31 35 37 30 23 24 46 49 32 22 4 359 -0 27 50 360 21 28 299 251 240 23 342 243 226 221 218 228 229 222 215 214 218 221 221 220 223 231 239 236
20 32 55 52 43 41 35 29 26 24 41 43 37 22 357 350 342 334 343 19 353 350 286 317 17 31 286 254 241 228 230 230 232 231 223 216 216 216 218 220 221 225 231 233
66 76 78 76 70 63 47 34 35 37 39 37 53 37 345 334 336 327 338 56 30 313 290 54 84 255 252 255 255 241 232 229 226 229 226 221 221 220 218 218 222 225 229 236
68 81 85 72 65 60 64 61 77 68 27 49 44 40 305 313 316 329 327 329 333 255 259 171 186 229 247 261 262 260 248 236 234 230 225 223 222 220 220 221 223 225 226 230
80 50 60 14 352 312 307 331 351 351 341 358 353 352 339 321 288 280 273 275 275 262 272 264 223 228 247 250 250 253 252 228 216 223 228 224 223 223 219 220 227 231 230 230
194 198 196 230 261 304 314 322 331 333 339 341 336 339 327 311 304 308 306 293 282 273 279 280 270 261 262 259 256 257 262 257 243 236 234 229 225 224 223 227 234 234 236 234